Wind_Speed
11 11 11 10 9 9 9 8 7 6 6 6 6 6 4 3 3 3 4 4 4 5 5 5 5 6 6 7 7 7 8 8 9 10 10 11 11 11 10 11 12 12 12
11 11 11 11 9 9 9 9 8 7 6 6 6 6 5 4 4 4 4 5 5 5 6 7 6 7 7 7 7 8 8 9 10 11 12 13 12 12 13 13 13 14 14
12 12 11 10 10 10 10 9 9 8 8 7 6 6 5 5 5 4 4 4 4 5 5 6 7 7 8 8 8 8 8 8 10 10 11 12 12 13 14 15 13 13 13
13 12 12 11 10 10 9 9 9 9 8 8 7 7 6 5 5 4 4 4 6 6 6 7 8 8 9 9 9 9 9 9 10 11 11 11 12 12 13 14 14 14 14
13 12 11 11 10 10 10 10 8 8 8 7 7 7 6 6 5 5 5 5 6 6 6 7 8 9 10 10 11 10 10 11 11 11 11 12 13 13 14 14 15 15 15
13 12 12 12 11 11 12 11 9 8 7 7 7 7 6 6 6 6 5 6 6 6 7 7 8 8 10 10 11 12 12 12 12 13 13 13 14 14 15 15 15 16 16
13 14 13 12 12 12 12 12 11 8 8 7 7 7 6 6 6 6 6 6 6 6 7 7 8 9 9 10 11 11 12 12 13 14 15 15 15 15 16 16 17 17 18
13 13 13 13 13 13 13 12 11 9 9 8 8 8 8 7 7 7 6 7 7 7 7 8 9 9 10 11 12 12 12 13 13 14 15 15 15 16 17 18 18 17 18
14 14 13 13 14 14 13 12 11 11 11 10 10 9 9 9 9 8 8 8 9 9 9 10 11 12 12 12 12 13 14 15 15 15 15 16 17 17 17 18 19 19 19
16 15 15 15 15 14 14 13 13 13 13 12 11 11 10 11 11 11 10 11 11 12 13 13 13 14 14 14 15 16 16 17 17 17 17 17 17 18 17 18 19 19 20
17 16 16 16 16 16 15 14 13 13 13 13 13 13 12 12 13 13 13 14 14 15 16 16 17 17 17 17 18 19 19 19 19 19 19 19 19 20 20 20 21 21 21
19 18 18 18 17 17 16 15 15 15 15 15 15 15 15 15 15 15 16 16 17 17 18 18 19 19 19 20 20 20 20 21 21 22 22 22 22 22 22 22 22 22 23
20 19 19 19 19 19 18 18 17 17 17 17 17 16 17 17 17 18 18 19 19 19 19 20 20 20 21 21 21 22 22 22 23 23 24 24 24 23 23 23 23 24 25
21 21 21 21 21 20 21 20 20 20 20 19 19 18 19 19 20 20 20 20 21 21 21 22 22 23 23 23 23 24 24 24 25 25 25 26 25 25 24 25 26 26 26
22 21 21 22 22 22 22 22 23 23 22 21 21 22 21 22 22 22 22 22 22 22 23 23 23 24 24 25 25 26 26 27 26 27 27 27 27 26 27 27 27 27 28
25 24 24 24 24 24 24 25 24 25 25 24 23 24 24 24 24 24 25 25 25 25 25 26 26 26 26 27 28 28 28 29 28 28 28 29 29 28 28 28 28 29 29
27 26 25 26 27 26 26 26 26 27 27 27 26 26 26 26 27 26 26 26 27 27 27 28 28 28 28 29 29 30 29 29 30 30 30 30 30 30 30 30 30 30 30
30 28 27 28 28 27 27 28 28 29 29 28 28 27 27 27 28 28 28 28 29 29 29 30 31 30 30 30 31 31 31 31 32 31 30 30 29 30 30 30 30 30 31
31 31 29 29 30 30 30 29 29 30 29 29 29 27 27 28 29 30 30 30 30 30 31 31 32 31 31 31 31 30 30 30 30 31 30 30 30 30 30 30 30 30 30
32 31 30 30 31 31 31 31 30 30 29 29 29 29 29 30 30 30 31 31 32 32 32 32 32 32 31 31 32 31 30 30 29 29 30 30 30 30 30 31 31 31 31
34 33 31 31 31 32 32 32 31 31 30 30 30 30 30 29 30 31 31 31 32 32 32 32 32 31 31 31 31 30 29 29 29 29 30 31 31 31 32 32 32 32 32
34 33 32 32 32 33 33 33 33 32 32 31 30 30 30 30 30 31 31 31 32 32 32 32 32 32 31 30 31 31 30 30 30 30 31 31 32 32 32 32 33 33 33
35 34 33 33 34 34 34 34 33 33 32 31 31 30 31 31 31 31 31 31 32 32 33 33 33 32 31 31 31 30 30 30 30 30 31 31 32 32 32 32 33 33 33
35 35 34 34 34 35 35 33 32 31 32 31 30 31 31 32 32 32 32 32 33 33 34 33 33 32 31 31 30 30 30 31 30 30 30 31 31 32 32 33 33 33 33
36 35 35 34 34 33 34 33 33 32 32 31 31 31 32 31 32 33 33 34 34 34 34 33 33 32 31 31 31 31 31 31 31 30 30 31 31 32 32 32 32 32 32
35 34 34 34 34 33 34 34 34 33 33 32 32 32 32 32 33 34 34 35 34 33 33 33 33 33 32 31 31 31 31 31 31 30 30 30 30 30 31 31 31 30 31
Wind_Direction
350 350 357 359 356 355 354 353 357 359 2 5 9 7 357 343 313 290 286 279 274 267 261 263 258 256 256 254 255 257 257 259 256 256 258 258 254 252 250 249 248 249 251
349 342 341 345 344 345 349 352 349 347 348 347 350 352 344 338 312 297 291 284 270 259 258 256 258 260 261 258 259 262 261 263 264 259 258 257 258 257 254 253 252 250 250
348 349 348 346 346 344 345 347 346 342 339 335 334 336 328 324 312 301 287 283 268 261 267 260 260 260 262 264 268 269 268 269 272 270 264 263 259 260 256 252 256 255 255
339 343 344 343 341 339 336 337 339 339 336 331 330 329 322 316 310 309 299 285 271 265 266 267 263 264 266 270 271 269 271 274 277 280 275 269 264 264 264 256 257 259 257
330 333 335 335 332 331 330 327 330 331 327 327 329 330 328 322 314 305 298 296 285 280 280 281 274 269 268 270 271 272 276 277 278 280 279 272 270 267 263 260 258 257 259
321 323 326 328 327 326 324 323 320 326 324 324 326 328 331 331 325 313 300 296 295 299 295 288 282 280 277 276 277 278 282 283 280 280 281 277 273 269 266 262 263 260 258
315 314 315 317 319 321 318 314 308 310 315 317 321 322 325 324 325 321 309 301 306 308 299 293 291 290 287 285 282 285 288 289 286 284 282 279 276 272 270 268 264 265 260
303 308 315 314 316 316 311 305 303 302 303 303 307 310 312 310 313 316 312 307 307 305 303 298 296 295 293 290 286 288 289 290 291 290 289 286 280 276 274 271 265 264 261
302 305 308 308 310 312 311 304 300 296 294 292 291 297 299 297 298 303 303 302 303 302 299 298 297 293 293 291 286 285 288 288 289 290 293 291 286 282 280 275 270 267 264
296 303 309 308 307 307 306 299 292 291 290 293 290 288 290 290 289 290 292 295 297 299 300 295 295 293 289 286 286 285 284 285 286 287 289 291 291 287 281 278 276 271 268
298 301 304 305 306 302 300 297 290 287 287 289 290 289 288 287 286 285 287 290 293 295 297 294 290 288 286 285 285 284 284 284 284 286 287 287 288 288 284 281 278 274 272
297 299 302 302 303 301 299 296 291 288 286 286 286 287 287 286 285 284 286 287 289 290 292 292 289 286 285 285 284 283 283 284 284 284 285 284 285 285 285 282 279 275 273
295 297 298 298 299 298 297 296 293 290 287 287 286 287 286 285 285 284 284 286 288 288 290 290 290 288 286 284 284 284 283 283 283 283 283 284 285 285 283 282 281 278 275
292 295 294 293 294 295 293 292 291 288 286 285 286 285 285 285 285 285 283 285 286 287 289 289 290 288 287 284 284 283 284 283 283 283 283 283 284 283 283 282 281 279 277
289 290 289 290 290 290 289 289 287 286 284 284 285 286 286 287 286 285 284 285 285 286 286 287 289 288 288 287 285 284 284 284 284 283 283 283 283 284 283 282 281 279 277
285 287 286 287 288 287 283 283 284 285 286 285 285 285 287 287 286 285 284 285 286 286 285 285 286 286 286 285 284 284 285 285 284 284 284 284 282 282 282 281 281 279 278
283 282 285 286 285 285 284 283 283 284 285 285 284 284 285 286 286 286 286 286 286 286 287 286 286 286 286 285 284 284 285 284 284 285 284 283 282 281 283 281 279 279 279
282 282 284 286 284 285 285 283 283 284 284 284 283 283 285 287 285 286 287 287 287 287 286 286 286 286 285 285 285 284 284 284 284 285 285 286 285 281 281 280 280 280 281
280 280 283 283 282 284 286 286 282 281 281 282 282 283 284 286 286 285 286 286 286 287 287 286 286 286 286 285 286 286 285 286 286 286 286 285 284 282 281 281 281 280 280
278 279 281 282 282 284 284 286 284 281 279 280 282 283 282 284 285 285 285 286 286 288 288 287 287 286 285 285 285 285 286 287 286 285 285 284 283 282 281 281 281 280 280
279 280 282 281 281 282 283 283 285 282 280 280 281 281 282 283 286 286 286 287 286 287 290 289 288 286 285 285 285 285 286 286 285 285 285 284 283 282 282 280 280 279 278
279 279 281 282 282 282 283 284 285 283 282 280 280 281 282 283 285 286 286 286 286 288 290 291 288 287 286 285 285 284 284 284 285 285 285 284 283 282 282 281 280 278 278
277 277 279 280 281 281 283 284 282 280 281 280 281 281 282 283 284 285 285 286 286 286 287 288 288 285 284 284 284 284 284 285 286 287 287 286 284 283 283 282 282 281 280
276 276 277 279 279 280 281 282 281 281 282 282 282 280 282 283 284 285 285 285 286 286 287 287 287 285 283 284 285 285 285 285 285 286 287 286 284 284 284 283 283 283 282
275 275 276 277 278 278 279 279 279 280 283 283 283 283 282 283 283 284 284 284 284 285 285 286 286 287 286 286 287 287 285 285 284 284 285 285 283 283 285 285 285 285 284
274 275 275 276 277 278 277 278 279 280 283 284 283 282 283 283 284 284 284 284 284 285 285 286 286 285 286 285 287 288 286 285 285 283 284 285 285 285 285 284 286 287 287
Height
5916 5914 5913 5912 5910 5909 5908 5907 5905 5904 5903 5902 5901 5900 5899 5898 5898 5897 5897 5896 5896 5896 5896 5896 5896 5896 5896 5896 5896 5896 5896 5896 5896 5896 5896 5896 5895 5895 5895 5895 5895 5895 5895
5915 5914 5913 5911 5910 5909 5907 5906 5905 5904 5903 5902 5900 5899 5898 5897 5896 5895 5895 5895 5894 5894 5894 5894 5894 5894 5894 5894 5894 5894 5894 5894 5893 5893 5893 5893 5893 5893 5892 5892 5892 5892 5892
5914 5913 5911 5910 5909 5908 5907 5905 5904 5903 5902 5901 5900 5898 5897 5896 5894 5893 5893 5893 5893 5892 5892 5892 5892 5892 5892 5892 5892 5892 5892 5891 5891 5890 5890 5890 5890 5890 5889 5889 5889 5889 5889
5913 5912 5910 5909 5908 5907 5906 5904 5903 5902 5901 5899 5898 5897 5895 5894 5892 5892 5891 5891 5891 5891 5890 5890 5890 5890 5890 5890 5889 5889 5889 5888 5888 5887 5887 5887 5886 5886 5886 5886 5886 5886 5886
5912 5910 5909 5908 5906 5905 5904 5902 5901 5900 5899 5898 5897 5895 5894 5892 5891 5890 5890 5889 5889 5888 5888 5888 5887 5887 5887 5887 5886 5886 5886 5885 5885 5884 5883 5883 5882 5882 5882 5882 5882 5882 5882
5910 5908 5907 5906 5904 5903 5902 5900 5899 5898 5897 5896 5895 5894 5893 5891 5890 5888 5888 5888 5887 5886 5886 5885 5885 5884 5884 5884 5883 5883 5882 5882 5881 5880 5880 5879 5878 5878 5877 5877 5877 5877 5877
5907 5906 5904 5903 5902 5900 5899 5898 5897 5896 5895 5894 5893 5892 5891 5890 5889 5888 5887 5886 5885 5885 5884 5883 5883 5882 5881 5881 5880 5879 5879 5878 5878 5877 5876 5875 5874 5874 5873 5873 5872 5872 5872
5904 5903 5902 5900 5899 5898 5897 5895 5894 5894 5893 5892 5891 5890 5889 5889 5888 5886 5885 5884 5884 5883 5882 5881 5880 5879 5878 5877 5877 5876 5876 5875 5874 5873 5872 5870 5869 5869 5868 5867 5867 5867 5867
5901 5900 5898 5897 5897 5896 5894 5893 5892 5891 5890 5889 5888 5888 5887 5886 5885 5884 5883 5882 5881 5880 5879 5878 5877 5876 5875 5874 5873 5873 5872 5871 5870 5869 5868 5866 5865 5864 5863 5862 5861 5862 5862
5897 5896 5894 5893 5893 5892 5891 5890 5889 5888 5887 5886 5885 5884 5884 5883 5882 5881 5880 5879 5878 5876 5875 5874 5873 5872 5871 5870 5869 5869 5868 5867 5865 5864 5863 5861 5860 5858 5857 5856 5855 5855 5855
5893 5892 5891 5890 5889 5888 5887 5886 5885 5885 5884 5883 5882 5881 5880 5879 5878 5877 5876 5875 5874 5872 5871 5869 5868 5867 5866 5865 5864 5863 5862 5861 5860 5858 5857 5856 5855 5853 5852 5851 5849 5849 5848
5889 5888 5888 5886 5884 5883 5883 5882 5881 5881 5880 5879 5878 5877 5876 5875 5874 5873 5871 5870 5869 5868 5866 5864 5862 5861 5860 5859 5858 5857 5856 5855 5854 5853 5851 5850 5848 5847 5845 5844 5843 5842 5841
5884 5884 5883 5882 5880 5879 5878 5878 5877 5876 5876 5875 5873 5872 5872 5870 5869 5867 5866 5865 5864 5862 5861 5859 5857 5856 5854 5853 5852 5851 5850 5849 5847 5846 5844 5843 5841 5840 5839 5837 5836 5834 5833
5879 5878 5878 5877 5876 5875 5874 5873 5872 5871 5870 5869 5868 5867 5866 5865 5864 5862 5860 5859 5858 5856 5855 5853 5851 5850 5848 5846 5845 5844 5843 5841 5840 5839 5837 5836 5834 5833 5831 5830 5828 5827 5825
5873 5872 5872 5871 5870 5869 5868 5867 5866 5865 5864 5863 5862 5860 5859 5858 5857 5856 5854 5853 5852 5850 5849 5847 5845 5843 5841 5839 5838 5837 5836 5834 5833 5831 5829 5828 5826 5825 5823 5822 5820 5818 5817
5867 5866 5865 5864 5863 5862 5861 5860 5859 5858 5857 5856 5856 5855 5853 5852 5850 5849 5847 5846 5845 5843 5842 5840 5838 5836 5834 5832 5831 5829 5827 5826 5824 5823 5821 5820 5818 5816 5815 5813 5811 5810 5808
5860 5859 5858 5858 5856 5855 5854 5852 5852 5851 5850 5849 5848 5847 5845 5844 5843 5841 5840 5839 5837 5836 5834 5832 5830 5828 5826 5824 5822 5820 5819 5817 5816 5814 5813 5811 5809 5807 5805 5804 5802 5801 5799
5853 5852 5851 5850 5849 5848 5846 5845 5844 5843 5842 5841 5840 5838 5837 5836 5835 5833 5832 5831 5829 5827 5825 5824 5822 5820 5818 5816 5814 5812 5810 5808 5807 5805 5803 5801 5800 5798 5795 5794 5792 5791 5790
5845 5844 5843 5843 5842 5840 5838 5836 5836 5835 5834 5833 5832 5830 5829 5828 5827 5825 5824 5822 5820 5818 5816 5815 5813 5811 5809 5807 5805 5803 5801 5799 5797 5796 5794 5792 5790 5788 5786 5785 5784 5782 5780
5837 5836 5835 5835 5833 5832 5830 5828 5828 5826 5825 5824 5823 5822 5821 5820 5818 5816 5815 5813 5811 5809 5808 5805 5803 5802 5800 5798 5795 5794 5792 5790 5788 5787 5785 5783 5781 5779 5777 5775 5774 5772 5771
5828 5827 5827 5826 5825 5823 5822 5820 5819 5818 5817 5816 5815 5814 5813 5811 5809 5808 5806 5804 5802 5801 5798 5796 5794 5792 5790 5787 5786 5784 5783 5781 5779 5777 5775 5773 5771 5769 5768 5766 5764 5762 5761
5819 5819 5818 5817 5816 5814 5813 5812 5810 5809 5808 5807 5806 5805 5804 5802 5801 5799 5797 5795 5793 5791 5789 5787 5784 5782 5780 5778 5776 5775 5773 5771 5770 5768 5766 5764 5762 5760 5758 5756 5754 5752 5750
5810 5810 5809 5808 5807 5805 5804 5803 5802 5800 5799 5798 5797 5796 5794 5793 5792 5790 5788 5786 5784 5782 5780 5778 5775 5773 5771 5769 5767 5765 5763 5761 5760 5758 5756 5754 5752 5750 5748 5746 5744 5742 5740
5800 5800 5800 5799 5798 5797 5795 5794 5792 5791 5790 5788 5787 5786 5785 5784 5782 5781 5779 5777 5775 5773 5770 5768 5766 5763 5761 5759 5757 5755 5753 5752 5750 5748 5746 5744 5742 5740 5738 5736 5734 5732 5730
5790 5790 5790 5789 5788 5787 5786 5785 5784 5782 5781 5780 5778 5777 5776 5774 5773 5771 5769 5767 5765 5763 5761 5759 5756 5754 5752 5750 5748 5746 5744 5742 5740 5738 5737 5735 5733 5731 5729 5727 5724 5722 5720
5780 5780 5780 5779 5779 5778 5777 5776 5775 5773 5772 5770 5769 5768 5766 5765 5763 5761 5759 5756 5754 5752 5750 5748 5746 5744 5743 5741 5739 5737 5735 5733 5731 5729 5727 5725 5723 5722 5720 5717 5715 5713 5711